Regional Weather Roundup
Issued by NWS Charleston, SC

Current Version | Previous Version | Graphics & Text | Print | Product List | Glossary On
Versions: 1 2 3 4 5 6 7 8 9 10 11 12 13 14 15 16 17 18 19 20 21 22 23 24 25 26 27 28 29 30 31 32 33 34 35 36 37 38 39 40 41 42 43 44 45 46 47 48 49 50
000
ASUS42 KCHS 182312
RWRCHS

REGIONAL WEATHER ROUNDUP
NATIONAL WEATHER SERVICE CHARLESTON SC
600 PM EST WED JAN 18 2017

NOTE: "FAIR" INDICATES FEW OR NO CLOUDS BELOW 12,000 FEET WITH NO
SIGNIFICANT WEATHER AND/OR OBSTRUCTIONS TO VISIBILITY.

NOT ALL STATIONS ARE QUALITY CONTROLLED. USE DATA WITH CAUTION...
ESPECIALLY DEWPOINT OBSERVATIONS.

SCZ027-030-031-034>040-042>050-190000-
...SOUTHEAST SOUTH CAROLINA...

CITY           SKY/WX    TMP DP  RH WIND       PRES   REMARKS
N CHARLESTON   PTCLDY    73  58  59 W7        29.99R
WATERFRONT PRK   N/A     75  61  61 VRB3      29.97R
MOUNT PLEASANT FAIR      73  61  64 W3        29.99S
JOHNS ISLAND   FAIR      73  61  64 W6        29.99S
PINOPOLIS        N/A     68  61  77 W9        29.89S
MONCKS CORNER  FAIR      72  57  60 CALM      29.98S
SUMMERVILLE    FAIR      72  61  68 SW5       30.00S
BEAUFORT MCAS  PTCLDY    73  59  61 W13       30.02R
BEAUFORT ARPT  FAIR      72  59  64 W10       30.01S
HILTON HEAD IS PTCLDY    72  64  78 SW9       30.04R
WALTERBORO     CLEAR     72  59  64 W10       30.01S
ALLENDALE      FAIR      72  61  68 CALM      30.01S

...SOUTHERN MIDLANDS AND PEE DEE...

CITY           SKY/WX    TMP DP  RH WIND       PRES   REMARKS
GEORGETOWN     FAIR      70  59  68 W5        29.98R
KINGSTREE      FAIR      68  52  56 CALM      29.98R
ORANGEBURG     CLEAR     74  52  46 NW7       30.00R
BARNWELL       FAIR      73  61  64 SW7       30.01S
AIKEN          FAIR      70  46  43 W6        30.05R
MANNING        FAIR      72  45  37 CALM      29.99R
COLUMBIA       MOCLDY    71  45  39 W7        29.99R
SUMTER         CLEAR     70  50  48 N6        29.97R
FLORENCE       CLEAR     70  43  37 N6        29.98R
MYRTLE BEACH   PTCLDY    73  52  46 NW9       29.98R
N MYRTLE BEACH CLEAR     68  54  60 N3        29.97R

$$

GAZ063-065-086>088-099>101-113>116-118-119-134>141-150-190000-
...SOUTHEAST GEORGIA...

CITY           SKY/WX    TMP DP  RH WIND       PRES   REMARKS
SAVANNAH ARPT  MOCLDY    73  57  57 W8        30.05R
HUNTER AAF     PTCLDY    72  60  66 W7        30.03R
FORT STEWART   CLEAR     70  59  68 CALM      30.05R
STATESBORO     CLEAR     72  63  72 W5        30.05S
SYLVANIA       CLEAR    N/A N/A N/A W7        30.05S
CLAXTON        FAIR     N/A N/A N/A CALM      30.06S

...CSRA...CENTRAL AND FAR SOUTHEAST GEORGIA...

CITY           SKY/WX    TMP DP  RH WIND       PRES   REMARKS
THOMSON        CLEAR     74  55  52 W6        30.08S
AUGUSTA-BUSH   PTCLDY    74  56  53 W7        30.01R
AUGUSTA-DANIEL CLEAR     75  52  44 W6        30.02S
SWAINSBORO     FAIR      72  61  68 MISG      30.07R
VIDALIA        MOCLDY    72  63  73 SW3       30.07S
EASTMAN        FAIR      74  50  43 CALM      30.10S
HAZLEHURST     FAIR      71  60  68 CALM      30.07S
ALMA           CLEAR     70  60  70 SW6       30.08S
WAYCROSS       CLEAR     73  64  73 W6        30.09F
JESUP          FAIR      72  59  64 W5        30.08R
BAXLEY         FAIR      72  63  73 CALM      30.07F
BRUNSWICK      CLEAR     72  63  73 SW7       30.09S
SAINT SIMONS   CLEAR     71  59  65 SW8       30.08S

$$

SCZ027-028-034-036>038-045-046-048>050-GAZ119-141-190000-
...LAKE AND SUPPLEMENTAL COASTAL OBSERVATIONS...

STATION/POSITION TIME  TEMP    WIND        PRES    WAVE   SWELL
                       AIR SEA DIR/SP/G            HT/PER HT/PER/DIR
                 (UTC) (F)     (DEG/KT/KT) (MB)    (FT/S) (FT/S/D)
WINYAH BAY       2145   76     290/  5     1014.0
LAKE MURRAY      2220   71     270/  7/ 12 1014.9
ACE BASIN NERRS  2145   75     240/  4     1016.0
FORT PULASKI     2248   71 57  250/  3/  5 1017.7R
SAPELO ISLAND    2200   73     280/  7     1018.0

$$

ANZ835-935-AMZ111-154-330-350-352-354-370-450-454-472-190000-
...C-MAN AND BUOY OBSERVATIONS...

STATION/POSITION TIME  TEMP    WIND        PRES    WAVE   SWELL
                       AIR SEA DIR/SP/G            HT/PER HT/PER/DIR
                 (UTC) (F)     (DEG/KT/KT) (MB)    (FT/S) (FT/S/D)
BUOY 41004       2150   70 72  240/ 21/ 25 1014.1    5/ 5
BUOY 41008       2150   65 60  240/  8/  8 1017.8    1/ 8   2/110/ 8
FOLLY BEACH CMAN 2300   60     220/  8/  8 1016.3R
CAPERS NEARSHORE 2208   59 55  240/ 10/ 14 1015.3R
FRIPP NEARSHORE  2208   62 59  230/  8/ 10 1016.5R


STATION/POSITION TIME  TEMP    WIND        PRES    WAVE   SWELL
                       AIR SEA DIR/SP/G            HT/PER HT/PER/DIR
                 (UTC) (F)     (DEG/KT/KT) (MB)    (FT/S) (FT/S/D)
5E ST. MARYS GA  2230      63                N/A     1/10
FRYING PAN BUOY  2250   69 72  260/ 12/ 14 1014.5R   5/ 6   3/200/ 6
BUOY 41025       2250   55 72   20/ 27/ 33 1014.0R   6/ 6   2/ 50/17
CAPE LOOKOUT NC  2300   54      20/ 13/ 15 1015.3R
BUOY 41002       2150   72 72  260/ 19/ 25 1013.0    9/ 7   2/180/10
BUOY 41010       NOT AVBL
ST AUGUSTINE FL  2300   74 63  310/  3/  3 1020.3R


$$



USA.gov is the U.S. government's official web portal to all federal, state and local government web resources and services.